Weather History for KBAD - May, 2013

Change the Weather History Date:

Thursday, May 2, 2013

  Actual Average Record
Temperature  
Mean Temperature 60 °F -  
Max Temperature 70 °F 79 °F 89 °F (2012)
Min Temperature 48 °F 58 °F 47 °F (2014)
Degree Days  
Heating Degree Days 6    
Growing Degree Days 10 (Base 50)    
Moisture  
Dew Point 62 °F    
Average Humidity 92    
Maximum Humidity 100    
Minimum Humidity 78    
Precipitation  
Precipitation 0.09 in - - ()
Sea Level Pressure  
Sea Level Pressure 30.02 in    
Wind  
Wind Speed 7 mph (North)    
Max Wind Speed 23 mph    
Max Gust Speed 29 mph    
Visibility 9 miles    
Events Rain    
Averages and records for this station are not official NWS values.
T = Trace of Precipitation, MM = Missing Value Source: NWS Daily Summary

Daily Weather History Graph

Daily Weather History Graph

Search for Another Location

Airport or City:

Trip Planner

Search our weather history database for the weather conditions in past years. The results will help you decide how hot, cold, wet, or windy it might be!

Date:

Astronomy

May. 02, 2013 Rise Set
Actual Time 6:26 AM CDT 7:56 PM CDT
Civil Twilight 6:00 AM CDT 8:23 PM CDT
Nautical Twilight 5:29 AM CDT 8:54 PM CDT
Astronomical Twilight 4:56 AM CDT 9:27 PM CDT
Moon 1:49 AM CDT (5/2) 1:10 PM CDT (5/2)
Length of Visible Light 14h 22m
Length of Day
13h 30m
Waning Gibbous, 47% of the Moon is Illuminated
May 2
Waning Gibbous
May 9
New
May 17
First Quarter
May 24
Full
May 31
Last Quarter

Hourly Weather History & Observations

Time (CDT) Temp. Dew Point Humidity Pressure Visibility Wind Dir Wind Speed Gust Speed Precip Events Conditions
12:38 AM 64.4 °F 64.4 °F 100% 29.95 in 10.0 mi ENE 4.6 mph - N/A   Mostly Cloudy
12:48 AM 64.4 °F 64.4 °F 100% 29.95 in 10.0 mi East 4.6 mph - N/A   Overcast
12:58 AM 64.9 °F 64.9 °F 100% 29.96 in 10.0 mi East 4.6 mph - N/A   Overcast
1:08 AM 64.4 °F 64.4 °F 100% 29.95 in 10.0 mi East 6.9 mph - N/A   Overcast
1:36 AM 64.4 °F 64.4 °F 100% 29.96 in 10.0 mi Variable 3.5 mph - N/A   Overcast
1:56 AM 64.4 °F 64.4 °F 100% 29.96 in 10.0 mi ENE 3.5 mph - N/A   Overcast
2:58 AM 64.8 °F 64.2 °F 98% 29.97 in 10.0 mi NE 2.3 mph - N/A   Overcast
3:48 AM 64.4 °F 64.4 °F 100% 29.97 in 10.0 mi NNE 4.6 mph - N/A   Overcast
3:58 AM 64.2 °F 64.2 °F 100% 29.98 in 10.0 mi NNE 3.5 mph - N/A   Overcast
4:12 AM 64.4 °F 64.4 °F 100% 29.98 in 10.0 mi North 4.6 mph - N/A   Light Drizzle
4:38 AM 64.4 °F 64.4 °F 100% 29.97 in 10.0 mi NNE 3.5 mph - N/A   Overcast
4:48 AM 64.4 °F 64.4 °F 100% 29.97 in 10.0 mi NNE 3.5 mph - N/A   Overcast
4:58 AM 64.0 °F 64.0 °F 100% 29.97 in 10.0 mi NE 4.6 mph - 0.00 in   Overcast
5:17 AM 64.4 °F 64.4 °F 100% 29.97 in 10.0 mi NNE 4.6 mph - N/A   Overcast
5:27 AM 64.4 °F 64.4 °F 100% 29.97 in 10.0 mi NNE 4.6 mph - N/A   Overcast
5:58 AM 64.0 °F 64.0 °F 100% 29.99 in 10.0 mi NNE 5.8 mph - N/A   Overcast
6:18 AM 64.4 °F 64.4 °F 100% 29.98 in 10.0 mi NE 4.6 mph - N/A   Overcast
6:58 AM 64.0 °F 63.5 °F 98% 30.00 in 10.0 mi NE 4.6 mph - N/A   Overcast
7:58 AM 64.6 °F 63.5 °F 96% 30.02 in 10.0 mi North 5.8 mph - N/A   Overcast
8:28 AM 66.2 °F 62.6 °F 88% 30.02 in 10.0 mi NNE 4.6 mph - N/A   Overcast
8:58 AM 67.1 °F 63.5 °F 88% 30.03 in 10.0 mi NNE 5.8 mph - N/A   Mostly Cloudy
9:38 AM 68.0 °F 62.6 °F 83% 30.03 in 10.0 mi North 9.2 mph - N/A   Overcast
9:58 AM 67.5 °F 63.1 °F 86% 30.04 in 10.0 mi North 8.1 mph - N/A   Overcast
10:48 AM 68.0 °F 62.6 °F 83% 30.04 in 10.0 mi NNE 9.2 mph - N/A Rain Light Rain
10:58 AM 67.1 °F 63.0 °F 87% 30.06 in 10.0 mi North 6.9 mph - N/A Rain Light Rain
11:00 AM 68.0 °F 62.6 °F 83% 30.05 in 10.0 mi North 6.9 mph - N/A   Overcast
11:13 AM 68.0 °F 62.6 °F 83% 30.05 in 10.0 mi North 4.6 mph - N/A   Overcast
11:58 AM 69.1 °F 62.6 °F 80% 30.06 in 10.0 mi North 10.4 mph - N/A   Overcast
12:08 PM 68.0 °F 62.6 °F 83% 30.05 in 10.0 mi NNE 8.1 mph - N/A   Overcast
12:18 PM 68.0 °F 62.6 °F 83% 30.05 in 10.0 mi North 5.8 mph - N/A Rain Light Rain
12:37 PM 68.0 °F 64.4 °F 88% 30.05 in 10.0 mi North 6.9 mph - N/A   Overcast
12:58 PM 67.8 °F 63.1 °F 85% 30.05 in 10.0 mi North 8.1 mph - 0.00 in   Overcast
1:25 PM 69.8 °F 62.6 °F 78% 30.04 in 10.0 mi North 8.1 mph - N/A Rain Light Rain
1:48 PM 68.0 °F 64.4 °F 88% 30.04 in 10.0 mi North 8.1 mph - N/A   Overcast
1:58 PM 68.2 °F 64.2 °F 87% 30.05 in 10.0 mi North 6.9 mph - 0.01 in   Overcast
2:38 PM 69.8 °F 62.6 °F 78% 30.03 in 10.0 mi North 8.1 mph - N/A   Overcast
2:58 PM 69.6 °F 63.3 °F 80% 30.04 in 10.0 mi NNE 9.2 mph - N/A   Overcast
3:58 PM 68.9 °F 62.1 °F 79% 30.03 in 10.0 mi NNE 10.4 mph - N/A   Overcast
4:33 PM 68.0 °F 62.6 °F 83% 30.02 in 6.0 mi North 9.2 mph - N/A Rain Light Rain
4:58 PM 64.4 °F 64.4 °F 100% 30.04 in 10.0 mi NNW 16.1 mph - 0.00 in   Overcast
5:03 PM 64.4 °F 62.6 °F 94% 30.03 in 5.0 mi NW 17.3 mph - N/A Rain Light Rain
5:49 PM 62.6 °F 60.8 °F 94% 30.04 in 6.0 mi NNW 13.8 mph - N/A Rain Light Rain
5:58 PM 62.4 °F 61.7 °F 97% 30.05 in 5.0 mi NW 16.1 mph - 0.01 in Rain Light Rain
6:21 PM 60.8 °F 60.8 °F 100% 30.04 in 1.0 mi NW 16.1 mph - N/A Rain Light Rain
6:58 PM 59.0 °F 57.9 °F 96% 30.06 in 1.0 mi NW 19.6 mph - 0.05 in Rain Light Rain
7:56 PM 56.1 °F 54.5 °F 94% 30.08 in 1.8 mi NW 16.1 mph - 0.02 in Rain Light Rain
8:23 PM 55.4 °F 53.6 °F 94% 30.09 in 10.0 mi NW 15.0 mph - N/A   Overcast
8:57 PM 54.5 °F 51.6 °F 90% 30.11 in 10.0 mi NW 19.6 mph - 0.00 in   Mostly Cloudy
9:58 PM 52.7 °F 48.7 °F 86% 30.13 in 10.0 mi NW 18.4 mph - N/A   Overcast
10:58 PM 50.4 °F 46.2 °F 86% 30.14 in 10.0 mi NW 18.4 mph 25.3 mph N/A   Overcast
11:58 PM 48.7 °F 43.7 °F 83% 30.14 in 10.0 mi NW 23.0 mph 28.8 mph N/A   Overcast